www.pogodaiklimat.ru

Погода и климат >> Архив погоды >> Пакистан >> Какул


ПОГОДА в Какуле

  • Прогноз погоды в Какуле
  • Монитор погоды в Какуле

АРХИВ ПОГОДЫ в Какуле

Время (UTC), дата Ветер
(напр.,м/с)
 
Видим.   Явления Облачность Т
(С)
Тd
(С)
f
(%)
Тe
(С)
Тes
(С)
Комфортность P
(гПа)
Po
(гПа)
Тmin
(С)
Tmax
(С)
R
(мм)
R24
(мм)
S
(см)
15 15.08 штиль 0 4000 м 6/5 1050 м
[Sc As op]
+26.0 +21.7 77 +33 +33 очень
душно
1000.0
18 15.08 штиль 0 4000 м ясно +25.0 +22.1 84 +32 +32 очень
душно
1000.0
21 15.08 штиль 0 4000 м ясно +23.0 +20.8 87 +30 +30 очень
душно
1000.0
00 16.08 штиль 0 4000 м ясно +21.0 +19.5 91 +25 +25 комфорт 723.7
03 16.08 штиль 0 10 км 8/6 1050 м
[Sc As op]
+22.0 +20.5 91 +28 +30 душно 1000.0 +20.1
06 16.08 СЗ 1 10 км 10/6 300 м
[Sc As op]
+24.0 +21.1 84 +30 +32 очень
душно
1000.0
09 16.08 СЗ 1 10 км 9/4 1050 м
[Sc As op]
+29.0 +21.9 66 +37 +41 очень
душно
1000.0
12 16.08 СЗ 1 10 км 6/3 1050 м
[Sc As op]
+27.0 +22.8 78 +36 +37 очень
душно
1000.0 +29.5
15 16.08 ЮВ 1 4000 м 5/3 1050 м
[Sc As op]
+25.0 +22.1 84 +32 +32 очень
душно
1000.0
18 16.08 штиль 0 4000 м 6/3 1050 м
[Sc As op]
+24.0 +21.1 84 +30 +30 очень
душно
1000.0
21 16.08 штиль 0 4000 м 9/4 1050 м
[Sc As op]
+23.0 +20.8 87 +30 +30 очень
душно
1000.0
00 17.08 штиль 0 4000 м гроза, ливневой дождь 10/4 900 м
[Cb cap As op]
+18.0 +17.2 95 +18 +18 1000.0 19
03 17.08 штиль 0 10 км в посл. час дождь 10/4 1050 м
[Sc As op]
+17.5 +16.7 95 +17 +18 1000.0 +17.1 3
06 17.08 ЮЗ 1 10 км 10/3 1050 м
[Sc As op]
+18.5 +17.7 95 +20 +23 723.0 3
09 17.08 ЮЗ 1 10 км 4/0
[Ac trans]
+21.0 +17.9 82 +27 +41 душно 1000.0
12 17.08 ЮВ 1 10 км 3/0
[Ac trans]
+26.0 +18.5 63 +31 +34 очень
душно
1000.0 +26.5 3
15 17.08 штиль 0 4000 м 3/0
[Ac trans]
+23.0 +20.0 83 +30 +30 очень
душно
1000.0
18 17.08 штиль 0 4000 м 3/0
[Ac trans]
+21.5 +19.2 87 +26 +26 душно 1000.0 3
21 17.08 штиль 0 4000 м 3/0
[Ac trans]
+20.5 +19.0 91 +24 +24 комфорт 723.4
00 18.08 штиль 0 4000 м 4/0
[As op]
+19.0 +17.4 90 +20 +20 1000.0
03 18.08 штиль 0 10 км ясно +19.0 +17.4 90 +20 +28 723.0 +18.0
06 18.08 штиль 0 10 км ясно +26.0 +16.6 56 +30 +53 опасность
солнечного
удара
1000.0
09 18.08 10 км н/о +28.0 +19.1 58 +33 +42 очень
душно
1000.0
12 18.08 10 км н/о +26.5 +19.9 67 +32 +34 очень
душно
726.2 +28.5
15 18.08 4000 м н/о +25.5 +21.7 80 +33 +33 очень
душно
1000.0
18 18.08 штиль 0 4000 м ясно +23.0 +20.0 83 +30 +30 очень
душно
1000.0
21 18.08 штиль 0 4000 м ясно +22.0 +20.5 91 +28 +28 душно 1000.0
00 19.08 4000 м в посл. час гроза {дождь} н/о +16.0 +14.2 89 +17 +17 1000.0 27
03 19.08 штиль 0 10 км ясно +17.5 +15.1 86 +17 +25 725.6 +15.0
06 19.08 10 км н/о +25.5 +17.0 59 +29 +41 душно 1000.0
09 19.08 10 км н/о +28.0 +19.1 58 +33 +44 очень
душно
1000.0
12 19.08 10 км н/о +27.0 +19.6 64 +33 +34 очень
душно
1000.0 +29.1
15 19.08 штиль 0 4000 м 8/8 1050 м
[Sc Ac As]
+25.0 +19.0 69 +30 +30 душно 728.5
18 19.08 СВ 1 4000 м ясно +21.0 +14.5 66 +25 +25 комфорт 1000.0
21 19.08 СВ 1 4000 м ясно +21.0 +14.5 66 +25 +25 комфорт 1000.0
00 20.08 штиль 0 4000 м ясно +17.0 +14.5 85 +17 +17 725.4
03 20.08 штиль 0 10 км ясно +20.0 +15.1 73 +22 +29 комфорт 1000.0 +16.1
06 20.08 СЗ 2 10 км 5/5 1050 м
[Sc diur, vesp]
+26.0 +18.5 63 +31 +40 очень
душно
1000.0
09 20.08 10 км н/о +30.0 +18.0 49 +35 +40 очень
душно
1000.0
12 20.08 10 км н/о +28.0 +19.1 58 +33 +34 очень
душно
1000.0 +30.5
15 20.08 штиль 0 4000 м ясно +25.0 +19.0 69 +30 +30 душно 727.2
18 20.08 штиль 0 4000 м ясно +21.0 +16.3 75 +24 +24 комфорт 1000.0
00 21.08 штиль 0 4000 м ясно +16.0 +13.3 84 +16 +16 722.9
03 21.08 штиль 0 10 км ясно +21.0 +16.3 75 +24 +32 комфорт 1000.0 +17.1
06 21.08 ЮВ 1 10 км ясно +29.0 +18.6 53 +34 +56 опасность
солнечного
удара
1000.0
09 21.08 10 км н/о +30.0 +18.0 49 +35 +40 очень
душно
1000.0
12 21.08 10 км н/о +29.5 +18.3 51 +34 +35 очень
душно
728.5 +30.5
15 21.08 штиль 0 4000 м ясно +25.5 +18.8 66 +30 +30 душно 1000.0
18 21.08 штиль 0 4000 м ясно +22.5 +17.1 72 +27 +27 душно 1000.0
21 21.08 штиль 0 4000 м ясно +19.5 +15.5 78 +21 +21 комфорт 1000.0
00 22.08 штиль 0 4000 м ясно +18.0 +16.4 90 +18 +18 1000.0
03 22.08 штиль 0 10 км ясно +20.0 +16.9 82 +22 +30 комфорт 1000.0 +17.1
06 22.08 10 км н/о +27.0 +17.0 54 +31 +43 душно 1000.0
09 22.08 10 км н/о +31.0 +17.5 44 +35 +41 очень
душно
1000.0
12 22.08 ЮВ 1 10 км 5/5 300 м
[Sc diur, vesp]
+29.0 +18.6 53 +34 +35 очень
душно
1000.0 +31.1

 

Местоположение метеостанции Какул (Пакистан): широта 34.18 долгота 73.25 высота над уровнем моря 1309 м.

В архиве по умолчанию представлена погода в Какуле за последнюю неделю. Архивные данные за месяц целиком и за предыдущие месяцы, начиная с января 2011 года, Вы можете получить, выбрав интересующий диапазон дат из раскрывающегося списка и нажав кнопку "Ввод!".


*Определитесь, кто Вы:
робот инопланетянин человек

Внимание! Время в таблицах - всемирное. Для получения местного времени необходимо прибавить поправку, которая равна 5 ч.

Смотрите также архив погоды в соседних городах и на ближайших метеорологических станциях:

Погода в Балакоре (Пакистан) (24 км)
Погода в Мерри (Пакистан) (31 км)
Погода в Исламабад Сити (Пакистан) (53 км)
Погода в Равалакоте (Пакистан) (63 км)
Погода в Исламабаде (Пакистан) (64 км)
Погода в Малам Джабба (Пакистан) (71 км)
Погода в Купваре (Джамму и Кашмир, Индия) (100 км)
Погода в Сайду-Шарифе (Пакистан) (103 км)
Погода в Паттане (Пакистан) (105 км)
Погода в Гульмарге (Джамму и Кашмир, Индия) (107 км)

Пояснения к столбцам:

Ветер - указаны скорость ветра в м/с - средняя за 10 мин, порывы в срок и между сроками (в фигурных скобках) и направление, откуда дует ветер: С - северный, СВ - северо-восточный, В - восточный, ЮВ - юго-восточный, Ю - южный, ЮЗ - юго-западный, З - западный, СЗ - северо-западный.
Видимость - горизонтальная дальность видимости в метрах или километрах. При видимости от 1 до 10 км при отсутствии осадков обычно наблюдается дымка, при ухудшении видимости до 1 км и менее - туман. В сухую погоду видимость может ухудшаться дымом, пылью или мглою.
Явления - указаны атмосферные явления, наблюдавшиеся в срок или в последний час перед сроком; фигурными скобками обозначены явления, наблюдавшиеся между сроками (за 1-3 часа до срока); квадратными скобками обозначены град или гололедные отложения с указанием их диаметра в мм.
Облачность - указаны через наклонную черту общая и нижняя облачность в баллах и высота нижней границы облаков в метрах; квадратными скобками обозначены формы облаков: Ci - перистые, Cs - перисто-слоистые, Cc - перисто-кучевые, Ac - высококучевые, As - высокослоистые, Sc - слоисто-кучевые, Ns - слоисто-дождевые, Cu - кучевые, Cb - кучево-дождевые. Подробнее классификацию облаков см. в Атласе облаков (PDF).
T - Температура воздуха - температура, измеренная на высоте 2 м над землей.
Td - Температура точки росы - температура, при понижении до которой содержащийся в воздухе водяной пар достигнет насыщения.
f - Относительная влажность воздуха - влажноcть воздуха, измеренная на высоте 2 м над землей.
Te - Эффективная температура - температура, которую ощущает одетый по сезону человек в тени. Характеристика душности погоды. При расчете учитывается влияние влажности воздуха и скорости ветра на теплоощущения человека.
Tes - Эффективная температура на солнце - температура, которую ощущает человек, с поправкой на солнечный нагрев. Характеристика знойности погоды. Зависит от высоты солнца над горизонтом, облачности и скорости ветра. Ночью, в пасмурную погоду, а также при ветре 12 м/с и более поправка равна нулю.
P - Атмосферное давление - приведенное к уровню моря атмосферное давление.
Po - Атмосферное давление - измеренное на уровне метеостанции атмосферное давление.
Tmin - Минимальная температура - минимум температуры воздуха на высоте 2 м над землей.
Tmax - Максимальная температура - максимум температуры воздуха на высоте 2 м над землей.
R - Количество осадков - Количество выпавших осадков за период времени, мм. При наведении курсора мыши на число - период времени, за который выпало указанное количество осадков.
R24 - Количество осадков - Количество выпавших осадков за 24 часа, мм.
S - Снежный покров - Высота снежного покрова, см. При наведении курсора мыши на число - состояние снежного покрова и степень покрытия местности в баллах.